Flag for Brazil Weather past 2 weeks in Boa Vista, Roraima, Brazil

Now
81 °F

Clear.


Feels Like: 83 °F
Forecast: 75 / 91 °F
Wind: 16 mph from Northeast

Location: Boa Vista Aeropor-To

Current Time: Mar 29, 2015 at 2:56:16 AM

Latest Report: Mar 29, 2015 at 2:00 AM


Visibility: 10 mi

Pressure: 29.89 "Hg

Humidity: 62%

Dew point: 66 °F

Location of Boa VistaLocation

Historic Weather in Boa Vista — Graph

°F

Boa Vista temperature yesterday

Maximum temperature yesterday: 93 °F (at 1:00 PM)
Minimum temperature yesterday: 77 °F (at 5:00 AM)
Average temperature yesterday: 85 °F

Past Weeks' High & Low Weather Summary

 TemperatureHumidityPressure
High95 °F (Mar 19, 3:00 PM)79% (Mar 27, 5:00 AM)30.04 "Hg (Mar 27, 5:00 AM)
Low73 °F (Mar 14, 6:00 AM)32% (Mar 19, 5:00 PM)29.71 "Hg (Mar 14, 5:00 PM)
Average84 °F54%29.87 "Hg
* Reported Mar 14 1:00 AM — Mar 29 1:00 AM, Boa Vista, Weather by CustomWeather, © 2015

Note: Actual official high and low records may vary slightly from our data, if they occured in-between our weather recording intervals... More about our weather records

Advertising

Boa Vista weather history for previous 24 hours

 ConditionsComfort  
Time TempWeatherWind HumidityBarometerVisibility
1:00 AM
Sun, Mar 29
82 °FClear.15 mph58%29.92 "Hg10 mi
12:00 AM84 °FClear.16 mph51%29.95 "Hg10 mi
11:00 PM
Sat, Mar 28
84 °FClear.12 mph55%29.95 "Hg10 mi
10:00 PM84 °FClear.13 mph55%29.92 "Hg10 mi
9:00 PM86 °FPassing clouds.20 mph52%29.92 "HgN/A
8:00 PM88 °FPassing clouds.17 mph46%29.89 "HgN/A
7:00 PM90 °FPassing clouds.10 mph43%29.86 "HgN/A
6:00 PM91 °FScattered clouds.No wind41%29.80 "Hg24 mi
5:00 PM91 °FScattered clouds.12 mph41%29.80 "HgN/A
4:00 PM91 °FBroken clouds.12 mph41%29.80 "HgN/A
3:00 PM91 °FBroken clouds.8 mph41%29.83 "HgN/A
2:00 PM93 °FPartly sunny.17 mph39%29.89 "HgN/A
1:00 PM93 °FScattered clouds.15 mph39%29.92 "HgN/A
12:00 PM91 °FScattered clouds.17 mph41%29.95 "HgN/A
11:00 AM90 °FPassing clouds.21 mph43%29.98 "HgN/A
10:00 AM86 °FPassing clouds.16 mph49%30.01 "HgN/A
9:00 AM82 °FSunny.22 mph58%30.01 "Hg10 mi
8:00 AM81 °FSunny.17 mph62%29.98 "Hg10 mi
7:00 AM77 °FSunny.16 mph69%29.98 "Hg10 mi
6:00 AM77 °FClear.15 mph69%29.95 "Hg10 mi
5:00 AM77 °FPassing clouds.18 mph74%29.95 "HgN/A
4:00 AM79 °FClear.15 mph70%29.92 "Hg10 mi
3:00 AM81 °FClear.13 mph66%29.92 "Hg10 mi
2:00 AM81 °FClear.14 mph66%29.92 "Hg10 mi
Weather by CustomWeather, © 2015

See weather overviewHow to use our weather pages